Theta_e
318 317 321 333 331 334 344 346 344 350 348 344 348 353 357 359 357 358 343 350 342 346 342 339 337 335 334 334 334 333 333 334 334 333 333 333 333 333 335 336 337 337 338 338 338 338 338 338 340
318 321 324 323 328 332 342 342 350 344 343 341 348 353 358 359 352 341 348 349 344 343 340 338 337 337 335 334 334 334 334 334 334 334 334 334 333 333 332 332 333 333 334 334 334 335 335 335 335
318 322 321 324 328 344 341 341 344 341 345 351 353 349 352 357 346 344 350 352 343 340 338 338 338 337 337 336 336 336 335 335 336 336 337 337 337 337 337 337 336 336 336 335 335 334 334 333 332
318 319 318 325 337 341 342 342 341 344 345 350 351 352 348 354 353 351 353 352 340 339 339 338 337 337 337 337 337 338 339 339 338 339 340 338 336 337 336 338 339 334 332 335 337 339 339 339 337
318 315 320 325 332 342 341 338 338 338 338 348 353 357 352 354 352 353 353 343 339 340 339 338 338 339 341 342 340 326 325 329 330 329 330 331 332 331 332 333 333 331 330 329 328 328 328 328 329
314 315 321 323 339 340 340 339 339 336 342 348 354 352 350 352 352 351 347 339 338 339 340 342 343 338 327 322 322 325 328 330 330 330 329 331 332 330 329 332 331 330 330 329 329 330 331 331 332
316 315 319 323 336 339 341 338 339 335 341 343 347 355 347 350 350 349 344 341 340 342 341 324 318 321 325 328 328 328 328 326 328 328 329 330 328 328 328 328 327 326 327 327 328 330 332 334 331
313 316 322 322 332 334 338 338 333 332 335 334 347 349 343 348 349 338 341 344 341 338 321 322 326 327 328 329 330 330 328 326 326 322 324 326 325 323 323 321 321 324 324 326 327 328 327 327 328
316 317 318 321 325 333 337 337 333 330 334 339 340 346 343 350 345 335 344 347 342 331 322 325 326 328 328 329 330 332 328 327 325 324 323 318 317 316 315 315 318 321 321 325 326 325 324 323 324
317 317 320 321 322 335 336 335 335 334 341 343 346 346 349 348 339 342 347 349 345 337 326 326 326 328 329 328 327 326 328 327 325 324 323 321 320 320 320 317 317 321 322 324 324 323 322 318 320
317 318 320 321 321 330 336 335 331 341 345 343 348 341 348 347 344 348 349 336 330 330 329 329 329 328 329 324 324 323 324 325 324 323 322 321 321 322 322 320 316 317 318 319 321 320 320 320 321
318 317 317 320 320 334 335 332 326 330 342 340 339 337 334 342 341 330 328 329 331 330 328 327 326 325 325 325 323 322 323 324 322 322 322 322 323 324 322 320 319 318 317 317 317 317 319 319 319
317 318 319 319 319 319 323 322 321 326 339 335 331 330 326 327 327 329 331 332 331 328 326 324 321 322 324 325 324 322 323 323 322 321 323 324 323 321 321 322 322 322 321 321 320 319 318 318 319
318 318 320 318 321 320 321 321 322 326 334 333 330 327 329 329 330 331 332 332 330 326 325 324 322 320 323 324 324 322 324 322 322 323 324 323 322 323 323 323 322 321 322 322 320 319 320 319 315
318 319 317 320 320 321 317 321 320 320 331 331 330 329 330 330 331 331 332 332 330 329 328 325 323 322 323 324 324 322 321 320 320 319 320 319 317 317 322 322 323 323 321 317 316 318 317 315 313
318 316 315 317 319 320 319 318 321 320 322 325 325 331 330 331 331 332 332 332 330 330 328 326 324 324 324 324 322 321 321 319 318 319 320 318 318 318 318 317 317 317 315 315 316 316 316 317 316
313 317 317 316 316 319 317 317 321 319 318 319 321 331 331 331 332 332 332 331 331 329 328 325 323 324 323 321 321 321 320 317 317 318 319 316 316 315 316 316 315 315 316 317 316 315 315 314 314
317 317 317 315 317 316 316 316 320 319 317 316 316 330 331 333 333 332 331 330 329 329 328 326 321 322 323 322 321 320 319 316 315 314 310 310 313 312 312 312 314 314 313 313 314 314 313 312 312
317 317 317 318 320 317 317 318 320 320 321 319 317 329 332 333 332 332 332 329 329 329 329 326 322 323 322 321 321 320 317 315 315 313 311 311 312 313 313 313 312 312 312 313 313 311 311 312 312
317 316 317 319 320 321 322 322 322 322 322 319 319 327 331 332 333 333 331 329 329 327 326 325 324 323 322 321 320 318 316 315 315 313 312 312 314 313 312 311 311 311 309 308 309 311 312 312 313
318 321 322 323 321 320 321 320 326 326 327 326 325 326 331 334 333 332 331 329 327 326 326 325 325 324 323 321 318 317 316 316 315 313 313 315 313 312 312 310 310 309 309 310 312 312 313 313 312
322 321 321 321 319 319 320 320 326 326 327 327 328 330 332 332 332 332 330 326 326 326 325 325 325 324 321 319 318 316 316 315 314 314 314 313 311 310 310 310 309 309 309 311 311 311 312 313 313
322 322 321 321 320 318 324 326 325 327 327 327 328 331 332 332 330 329 327 327 326 326 325 324 324 323 319 318 317 316 316 315 315 314 311 309 310 310 310 309 308 308 308 310 310 309 311 310 311
321 320 322 321 317 323 326 327 326 328 330 332 333 333 333 332 331 330 328 327 325 324 324 324 323 320 319 318 317 316 316 314 312 310 309 310 309 309 309 308 308 307 308 310 307 309 309 308 309
319 322 324 327 325 328 325 330 328 326 326 330 334 332 332 330 329 328 325 319 320 323 324 322 320 319 318 318 317 313 312 311 309 310 310 309 309 309 308 310 307 306 307 308 306 306 306 307 308
323 321 323 331 329 327 326 329 327 324 323 329 329 328 329 328 323 318 317 317 316 316 317 317 316 315 313 312 311 310 310 309 309 309 309 308 309 309 308 308 305 305 305 305 305 305 306 307 307
322 321 320 323 323 323 327 328 327 323 321 321 320 317 316 316 315 314 313 313 313 312 312 313 313 311 311 310 309 309 309 308 308 309 308 307 308 307 307 305 305 305 306 306 306 306 306 306 306
324 322 326 323 329 331 330 331 330 322 320 318 318 315 314 313 312 311 310 309 309 309 308 309 309 309 309 309 308 309 309 308 307 308 308 307 306 305 304 305 305 306 306 306 307 307 307 307 307
325 325 326 325 328 328 329 327 324 321 321 317 315 312 312 311 310 310 308 307 306 306 305 304 304 306 308 308 307 307 307 307 307 306 306 307 307 306 306 305 306 306 307 308 306 306 306 307 307
326 328 324 327 327 326 325 323 318 318 316 314 315 313 311 310 309 308 308 306 305 305 304 303 304 305 306 305 306 306 305 305 305 306 307 306 307 307 307 306 307 308 308 307 305 306 305 305 306
Wind_Speed
17 17 9 1 4 5 2 1 5 10 6 9 16 13 6 7 3 6 9 16 17 17 17 16 16 16 16 17 17 17 17 16 16 15 14 13 13 12 10 9 8 7 6 5 4 4 5 5 6
18 10 2 2 5 4 3 4 12 15 11 12 28 18 11 9 7 11 13 17 18 18 17 17 16 15 16 16 16 17 17 16 16 14 14 13 13 12 11 10 9 8 6 5 5 6 7 8 9
17 5 3 4 3 4 4 5 11 12 18 8 6 6 5 6 9 12 23 22 21 20 18 17 16 16 16 16 16 16 17 16 17 15 14 14 13 12 12 11 10 9 9 9 9 9 10 11 11
7 6 4 4 2 3 5 5 13 11 11 7 9 5 4 13 17 22 23 24 25 20 18 17 17 16 16 16 16 17 17 17 16 15 15 15 14 14 13 12 12 15 15 14 13 13 14 15 16
2 3 4 3 2 3 3 3 6 10 8 7 11 7 4 14 31 31 28 23 25 22 19 17 16 16 16 17 18 19 21 23 21 17 16 17 15 17 17 13 14 17 18 17 17 17 17 18 18
4 3 3 1 2 3 6 11 7 5 5 4 12 10 5 22 31 28 29 26 22 22 21 19 17 18 20 21 22 23 23 22 23 21 19 19 17 20 20 16 18 17 17 18 20 21 21 21 21
5 3 4 4 5 2 5 3 5 7 6 2 5 7 3 11 31 29 30 28 25 23 23 23 23 25 24 23 22 22 20 19 17 16 16 17 17 18 17 16 18 18 19 22 21 20 20 19 21
5 4 3 1 4 8 6 5 7 11 12 4 11 6 9 15 31 29 29 27 26 24 25 26 25 23 22 22 20 19 17 16 17 17 14 14 15 15 16 17 18 16 18 19 20 21 22 23 22
4 3 4 6 2 7 3 5 5 8 4 1 6 7 19 35 30 30 28 27 23 21 23 22 21 21 19 17 15 13 14 14 14 15 16 18 17 21 21 20 18 18 18 20 22 25 26 27 26
4 4 8 7 4 5 5 7 8 5 9 3 11 15 31 36 32 26 21 24 21 20 17 16 16 15 16 15 16 17 13 11 13 15 16 18 15 20 21 21 21 19 19 20 23 24 26 28 28
1 5 6 2 5 10 8 2 4 8 8 18 21 23 29 31 28 25 24 27 30 29 26 19 17 17 15 16 15 14 13 9 10 14 15 16 16 17 20 23 22 20 21 23 26 28 27 26 27
3 13 8 5 4 7 9 4 9 10 8 15 17 20 24 20 21 26 27 29 30 32 29 28 22 20 17 14 14 13 11 9 9 11 14 16 13 14 19 22 22 18 20 23 25 31 30 30 29
6 18 13 7 7 8 9 4 5 7 14 11 9 10 14 18 23 25 30 30 33 30 26 23 20 18 17 15 14 12 11 11 12 12 10 9 15 19 17 14 15 14 19 20 22 25 26 29 30
3 9 4 7 3 4 12 5 4 3 13 14 13 16 18 22 29 28 29 30 32 28 24 20 19 17 14 15 12 14 14 15 19 17 10 15 19 12 11 12 14 21 16 17 17 20 22 25 32
6 4 4 2 2 4 10 3 9 8 14 14 10 16 19 21 31 30 31 34 33 29 26 23 21 18 15 12 11 15 16 15 19 19 15 18 21 20 16 16 17 13 15 22 24 22 24 30 33
6 5 6 6 1 3 7 6 5 7 10 10 11 16 18 18 28 30 35 38 35 32 28 24 20 18 13 13 14 13 13 13 16 16 17 22 21 19 23 24 21 21 26 24 22 23 24 22 26
8 4 5 11 7 6 4 5 7 9 11 11 11 20 18 15 18 26 30 36 36 33 29 25 19 16 15 13 10 8 8 10 9 10 13 19 20 22 21 22 24 24 22 21 19 20 22 26 28
7 4 6 7 10 8 7 7 7 10 10 12 9 16 15 19 18 28 28 34 38 32 26 22 20 17 14 10 6 4 3 5 7 10 14 16 17 20 21 21 22 21 23 23 24 22 24 27 27
3 5 6 5 5 4 2 6 8 4 2 6 7 15 14 14 19 25 29 34 34 27 23 22 22 17 14 11 7 3 3 6 9 13 15 15 16 17 19 22 28 24 26 23 23 27 27 25 25
3 2 6 4 9 5 3 2 2 7 6 6 6 8 13 14 16 23 25 27 29 28 23 22 18 14 10 7 7 3 2 7 9 12 14 16 17 16 23 24 27 25 26 26 24 23 25 21 21
4 5 4 2 6 6 7 6 12 6 13 15 10 14 17 18 17 12 18 20 27 27 23 20 16 12 9 7 5 1 3 6 8 13 13 13 16 18 21 26 23 25 25 23 21 22 21 20 20
4 1 5 5 5 1 5 3 5 7 12 10 14 6 13 13 12 10 13 14 24 23 21 18 16 11 9 5 3 5 5 5 8 9 9 15 19 21 18 18 22 23 22 21 20 22 20 20 18
5 2 4 2 2 3 6 5 5 5 8 8 9 11 9 11 8 9 14 18 20 20 20 17 15 13 8 7 7 7 7 6 6 5 14 22 20 18 17 19 21 19 21 19 18 21 18 19 17
4 4 7 5 2 3 4 4 4 3 3 5 11 16 13 12 9 10 15 6 7 14 15 15 14 11 10 11 7 5 5 1 6 14 20 18 20 18 19 20 18 20 18 16 20 18 18 19 16
10 7 4 5 5 4 3 4 5 2 5 5 13 12 12 9 4 6 5 12 16 18 17 13 12 10 6 3 4 6 6 7 14 13 14 17 18 19 20 15 19 19 18 17 20 18 17 15 15
1 6 4 2 2 5 5 4 3 3 7 13 12 12 10 8 4 4 13 17 25 25 18 13 12 17 13 10 8 7 10 16 14 14 14 18 18 19 16 16 17 18 19 18 18 17 15 14 13
4 2 4 4 3 3 2 2 4 7 11 10 9 8 9 12 14 15 21 23 24 27 27 23 20 17 13 11 10 13 17 19 16 13 16 17 16 16 17 17 16 18 16 16 17 17 17 15 15
5 3 5 4 2 3 2 2 4 6 6 8 9 12 13 13 14 13 20 21 23 24 23 20 17 16 12 13 14 16 18 20 18 14 15 13 15 17 15 14 15 16 17 19 20 19 18 17 15
5 3 4 4 4 4 1 4 4 7 5 8 9 12 13 13 12 11 16 21 20 17 18 17 18 16 15 16 17 17 17 17 16 15 12 14 14 16 17 14 17 20 21 19 20 17 17 15 15
4 3 4 5 5 2 4 4 5 4 7 11 15 13 10 11 10 11 12 11 12 13 16 18 17 15 16 19 18 21 19 17 15 15 17 17 15 16 16 18 20 19 18 13 16 16 16 15 15
Wind_Direction
333 334 320 9 52 62 107 249 84 76 34 335 298 257 161 48 51 127 127 144 139 128 122 116 112 109 105 102 98 94 91 88 86 84 82 78 77 74 70 67 66 66 56 43 18 350 324 309 302
335 348 53 53 77 66 328 340 78 110 133 201 255 252 50 68 63 110 119 140 135 127 119 112 110 104 100 98 96 95 93 89 82 76 75 72 69 67 63 56 48 42 31 16 357 336 320 311 305
329 321 72 93 91 127 150 104 149 131 158 207 265 16 56 97 84 134 141 147 138 128 121 115 110 104 100 97 95 92 88 85 83 77 71 64 58 55 52 46 34 23 11 357 346 334 322 313 305
319 4 27 83 139 353 143 185 157 159 231 213 105 62 62 145 146 141 142 148 137 125 118 113 111 107 103 99 94 89 86 79 73 69 67 63 57 54 45 39 34 24 13 0 351 340 329 319 310
339 59 45 78 228 160 203 135 165 181 183 190 134 124 59 87 126 138 148 145 129 127 120 113 109 106 102 100 96 92 86 77 67 67 63 54 52 45 32 31 23 11 5 0 357 348 341 331 319
10 94 37 50 119 239 264 172 167 143 245 127 118 115 69 123 134 147 141 137 128 125 121 116 112 108 103 100 96 93 85 76 75 73 68 59 65 50 43 39 27 18 12 3 353 347 341 335 328
132 87 220 168 185 263 251 172 196 120 248 181 140 105 99 161 148 146 135 130 131 127 123 116 112 107 103 99 94 90 87 75 72 68 68 69 57 49 40 37 22 19 21 16 10 6 3 0 359
122 106 304 305 164 244 223 206 148 134 214 90 131 167 175 174 159 140 132 130 127 129 126 123 121 114 110 103 98 96 87 76 66 61 58 46 42 36 27 16 12 10 10 3 3 358 354 354 359
137 70 299 265 255 237 232 190 141 156 109 109 207 143 155 160 158 145 136 131 124 133 135 133 131 124 117 110 106 101 94 77 60 57 47 35 44 33 24 19 11 4 359 356 353 349 348 344 340
109 120 232 209 232 190 215 187 140 142 142 184 134 124 142 150 154 148 145 139 139 147 149 151 136 127 114 104 107 94 95 70 51 41 36 27 28 18 17 12 4 2 360 354 347 344 344 344 342
170 221 271 263 265 166 189 293 104 135 159 159 151 144 152 152 157 153 155 142 131 121 112 138 146 120 129 115 98 91 81 63 44 26 18 13 10 2 2 1 3 356 349 340 339 342 344 344 342
303 277 252 275 181 138 168 181 162 182 182 161 155 157 147 157 161 142 132 130 131 120 113 113 115 111 103 100 84 75 67 72 48 26 7 358 357 353 352 349 351 345 343 331 333 329 334 337 335
207 266 265 236 147 156 131 147 141 135 159 165 153 119 118 130 125 124 127 129 127 117 114 110 104 96 89 80 78 61 62 49 41 25 13 359 4 352 343 336 331 327 330 324 326 325 327 326 330
277 282 310 182 105 100 117 173 80 162 163 167 169 130 133 133 132 130 130 128 124 121 114 109 96 89 90 70 71 51 46 56 40 42 40 12 357 337 334 320 332 331 324 330 331 331 326 325 325
288 315 16 354 193 151 115 15 165 176 171 173 153 144 138 138 141 141 140 135 133 128 124 115 108 98 93 66 68 66 60 53 44 40 22 26 16 7 2 347 339 339 345 335 329 324 318 315 314
353 46 14 294 218 265 119 230 234 176 144 172 133 149 144 152 148 147 145 142 140 135 127 119 117 114 102 92 80 72 58 44 30 18 15 5 11 11 1 354 349 337 330 328 322 319 325 330 328
12 282 309 307 205 178 136 218 198 187 167 191 159 159 154 144 149 151 147 141 142 136 130 123 126 124 112 105 93 76 50 33 25 10 355 347 345 348 354 348 337 339 337 331 330 328 327 326 321
264 348 299 266 281 168 178 193 177 204 183 194 173 166 158 157 159 151 144 141 140 140 138 136 143 147 142 144 139 108 44 26 8 359 360 360 338 339 334 333 335 335 334 332 331 333 328 325 321
222 235 236 290 342 71 70 68 236 247 254 214 196 167 161 148 143 145 143 142 142 144 148 151 151 154 160 155 152 148 39 358 353 355 358 6 353 345 339 336 336 334 333 331 326 324 324 321 321
241 3 340 317 342 83 137 134 38 347 295 230 203 140 140 145 152 149 145 143 150 148 150 145 147 155 158 165 160 151 349 337 331 349 352 355 349 339 334 332 331 333 333 330 331 328 321 316 321
43 72 17 73 327 18 44 10 20 7 22 21 357 175 160 156 146 148 146 151 149 152 155 156 160 162 160 171 151 201 300 298 319 342 340 352 346 326 325 329 331 334 339 337 335 331 326 314 320
46 312 43 31 60 279 45 254 13 329 7 23 9 78 132 143 139 146 149 137 148 161 172 169 164 161 165 166 230 265 257 292 312 320 338 343 336 322 331 329 331 331 341 340 338 335 331 326 317
227 309 30 349 49 113 341 90 257 359 353 342 5 45 41 56 45 76 91 146 170 182 178 166 157 163 178 217 253 241 240 276 303 332 337 335 330 334 332 330 330 334 338 337 339 337 339 334 327
305 19 38 37 56 33 251 113 326 13 273 311 66 69 62 67 105 123 142 160 181 198 178 158 158 182 217 234 236 244 257 333 343 340 335 331 332 330 331 327 334 335 340 338 334 332 331 328 326
53 51 344 359 6 234 204 46 239 359 8 77 114 108 102 95 29 262 140 140 114 125 134 146 179 209 252 221 115 77 48 12 342 333 326 330 334 332 329 324 333 336 334 328 331 333 329 329 328
108 133 155 256 247 265 5 128 179 145 120 111 125 129 138 185 194 71 64 71 62 60 59 67 71 70 77 65 52 22 0 352 350 337 340 339 333 327 328 325 329 336 335 332 335 336 338 340 336
312 339 188 128 6 71 216 330 317 78 68 79 84 80 74 87 80 78 71 66 62 58 53 48 49 45 28 23 11 357 351 349 344 340 343 341 336 333 330 325 338 340 344 346 347 343 343 342 336
78 250 37 21 27 312 288 236 212 105 126 114 97 89 92 92 79 70 65 60 55 46 38 31 25 21 17 4 360 351 347 341 336 329 333 344 349 350 344 346 353 356 351 350 340 337 336 331 333
342 35 60 124 146 210 260 265 231 157 154 115 91 88 87 78 79 76 70 60 51 40 27 19 7 359 8 8 358 350 343 339 338 341 347 345 341 347 356 351 347 344 338 340 346 345 349 346 340
134 142 111 115 269 215 150 271 359 93 98 81 90 88 83 87 94 97 90 78 60 48 29 21 16 15 5 358 352 347 343 339 343 346 346 346 344 343 342 344 343 344 346 348 355 1 353 354 354